Location: Butte
(46.0040°N, 112.5340°W)
Time: 14:12:51
(UTC-07:00)

Daily predictions for brighter satellites

Satellite Brightness Start Highest point End
(mag) Time Altitude Azimuth Time Altitude Azimuth Time Altitude Azimuth
IRS-1A Rocket 4.2 17:07:19 10° SSE 17:12:46 70° ENE 17:18:18 10° N
IDEFIX/ARIANE 42P 3.0 17:09:52 10° SE 17:14:39 39° ENE 17:19:26 10° N
Thor Agena Rocket 4.4 17:11:24 10° NE 17:16:03 31° E 17:20:42 10° SSE
Meteor 1-5 Rocket 4.4 17:10:36 10° NNW 17:16:04 81° W 17:21:41 10° S
SL-8 Rocket 4.0 17:11:30 10° N 17:17:42 77° E 17:23:51 10° SSE
Cosmos 2251 Rocket 3.7 17:13:34 10° NNW 17:18:57 86° WSW 17:24:16 10° SSE
Cosmos 2263 Rocket 4.2 17:20:58 10° W 17:25:14 21° NW 17:29:32 10° N
AQUARIUS 4.4 17:25:14 10° SE 17:29:33 48° ENE 17:33:54 10° N
Cosmos 1959 Rocket 4.5 17:24:17 10° N 17:30:32 81° E 17:36:48 10° S
Cosmos 1484 Rocket 4.1 17:28:39 10° ESE 17:31:17 19° ENE 17:33:55 10° NNE
Cosmos 2366 rocket 4.0 17:24:57 10° N 17:31:19 73° E 17:37:35 10° SSE
CSL-04 Rocket 4.5 17:28:01 10° S 17:33:26 59° W 17:38:55 10° NNW
Cosmos 1975 3.0 17:30:04 10° N 17:34:03 50° ENE 17:37:58 10° SSE
OPS 8737 4.4 17:33:13 10° SW 17:36:28 74° NW 17:39:41 10° NE
Cosmos 1238 Rocket 2.1 17:36:02 10° S 17:39:00 73° E 17:42:18 10° NNE
PAYLOAD A 4.0 17:35:19 10° SSE 17:40:13 87° W 17:45:20 10° NNW
Cosmos 2218 Rocket 4.1 17:35:30 10° N 17:41:48 85° W 17:48:00 10° S
Abrixas 2.9 17:39:53 10° WNW 17:42:48 59° SSW 17:45:43 10° ESE
Cosmos 1544 Rocket 4.0 17:38:50 10° NNW 17:43:17 67° W 17:47:43 10° S
CZ-4 R/B 1.4 17:40:02 10° SSE 17:44:12 85° ENE 17:48:20 10° NNW
USA 234 3.5 17:40:41 11° ENE 17:46:55 56° SE 17:53:18 10° SSW
CRYOSAT 2 4.4 17:42:26 10° N 17:47:23 88° E 17:52:16 10° S
Cosmos 1844 Rocket 3.5 17:42:41 10° SW 17:48:06 49° WNW 17:53:34 10° NNE
COSMO-SKYMED 1 3.8 17:47:03 12° NE 17:50:07 23° E 17:53:34 10° SSE
Cosmos 1812 2.8 17:48:48 10° S 17:52:39 81° W 17:56:33 10° N
Meteor 1-12 Rocket 4.4 17:47:22 10° NNW 17:53:12 84° W 17:59:07 10° S
MOS 1 4.3 17:48:28 10° SSE 17:54:08 89° ENE 17:59:49 10° NNW
MSX 3.8 17:48:40 10° SSE 17:54:18 60° ENE 17:59:58 10° N
CZ-2C R/B 2.5 17:50:42 10° SSE 17:55:46 88° ENE 18:00:59 10° NNW
CORIOLIS 4.1 17:51:32 10° SSE 17:56:56 80° ENE 18:02:21 10° NNW
Cosmos 407 Rocket 4.5 17:54:36 10° N 17:58:46 24° NE 18:02:22 12° ESE
COSMOS 2441 4.5 17:54:11 10° SSE 17:58:55 53° ENE 18:03:42 10° N
ERBS 4.1 17:56:31 10° NNW 17:58:56 18° NNE 17:59:43 16° NE
NOSS 3-4 (A) 3.9 17:52:51 10° NNW 17:59:36 52° NE 18:06:44 10° ESE
NOSS 3-4 (C) 3.9 17:52:57 10° NNW 17:59:41 52° NE 18:06:50 10° ESE
BREEZE-M DEB (TANK) 3.7 17:52:22 10° W 18:00:25 53° N 18:03:26 19° ENE
Cosmos 921 Rocket 3.4 17:58:43 10° S 18:02:43 41° ESE 18:05:48 16° NE
Cosmos 1025 Rocket 4.1 17:59:53 10° SE 18:03:27 25° E 18:05:09 20° NE
Cosmos 1821 Rocket 4.2 17:58:57 10° N 18:04:44 42° ENE 18:10:29 10° SE
SJ-12 4.3 18:01:02 10° S 18:05:06 66° WSW 18:09:14 10° NNW
Timation 2 Rocket 4.2 18:00:02 10° NNW 18:06:55 88° ENE 18:13:50 10° SSE
Cosmos 1536 Rocket 3.8 18:03:00 10° SSW 18:07:29 74° W 18:11:58 10° N
NOSS 3-3 (A) 4.1 18:02:04 10° SW 18:08:20 81° NW 18:14:23 14° NE
NOSS 3-3 (C) 4.1 18:02:10 10° SW 18:08:25 82° NW 18:14:28 14° NE
BREEZE M DEB (TANK) 2.8 18:07:42 10° WNW 18:10:47 70° NNE 18:18:04 13° ESE
COSMOS 2487 3.6 18:12:21 10° NNW 18:15:51 48° WSW 18:19:18 10° S
YAOGAN 1 3.1 18:12:29 10° S 18:16:47 62° W 18:21:05 10° NNW
Cosmos 1371 Rocket 4.4 18:15:52 10° S 18:20:53 42° ESE 18:23:47 23° NE
Okean 1 4.1 18:18:33 10° SSW 18:22:32 52° WNW 18:26:32 10° N
Cosmos 2297 3.6 18:17:04 10° SSW 18:22:42 78° ESE 18:27:15 16° NNE
Meteor 2-21 Rocket 4.4 18:17:42 10° N 18:23:56 84° E 18:30:05 10° S
SPOT 3 Rocket 4.4 18:19:37 10° S 18:24:40 52° W 18:29:44 10° NNW
Meteor 2-16 Rocket 4.3 18:18:48 10° N 18:24:54 72° E 18:30:58 10° SSE
GRACE-2 3.7 18:24:33 10° S 18:27:19 76° E 18:27:50 54° NNE
Cosmos 1666 3.0 18:23:58 10° N 18:27:41 43° ENE 18:31:24 10° SSE
GRACE-1 3.7 18:24:58 10° S 18:27:45 79° E 18:28:19 52° NNE
SL-8 R/B 3.7 18:23:05 10° W 18:27:52 76° NNW 18:29:59 33° ENE
Cosmos 1346 Rocket 3.1 18:24:13 10° SSW 18:28:05 65° WNW 18:31:57 10° N
METEOR-M 4.5 18:26:47 10° SE 18:31:45 41° ENE 18:36:44 10° N
Cosmos 2278 Rocket 3.1 18:26:49 10° SW 18:32:15 47° WNW 18:37:44 10° NNE
SMAP 4.4 18:28:06 10° S 18:32:29 41° W 18:36:55 10° NNW
ISS -2.1 18:30:17 10° WNW 18:33:14 29° N 18:33:23 29° N
Nadezhda 3 Rocket 4.0 18:28:07 10° S 18:34:21 90° NE 18:40:41 10° N
BREEZE-M DEB (TANK) 2.3 18:33:19 10° W 18:35:14 43° NNW 18:35:14 43° NNW
SKYMED 2 3.4 18:35:39 22° NNE 18:38:25 71° ESE 18:42:45 10° S
BREEZE M DEB (TANK) 2.6 18:34:03 10° SW 18:41:12 52° SSE 18:41:53 44° ESE
GEOS 3 Rocket 3.6 18:41:16 31° ESE 18:43:33 57° NE 18:48:35 10° NNW
OE (NEXTSAT) 4.2 18:40:05 10° W 18:43:41 85° S 18:43:59 73° E
Tiangong 1 1.9 18:43:04 10° WSW 18:45:42 41° S 18:45:42 41° S
Cosmos 1833 Rocket 3.2 18:42:21 10° NNW 18:47:55 59° WSW 18:53:24 10° S
CZ-3B DEB 3.0 18:43:21 10° W 18:47:55 61° NNW 18:53:53 26° NE
Cosmos 1743 3.5 18:45:39 10° NNW 18:49:27 53° W 18:53:12 10° S
Cosmos 1190 Rocket 3.9 18:44:46 10° NNW 18:50:01 69° ENE 18:55:12 10° SSE
Timation 1 Rocket 4.4 18:46:16 10° SSW 18:52:14 80° WNW 18:56:01 24° NNE
CZ-3A R/B 4.4 18:48:20 10° W 18:55:05 63° N 19:13:42 27° ENE
Cosmos 2082 Rocket 3.3 18:49:52 10° NW 18:55:14 45° WSW 19:00:35 10° S
Meteor 1-28 Rocket 3.7 18:56:18 46° SSE 18:56:18 46° SSE 18:59:09 10° S
Cosmos 1727 Rocket 4.3 18:50:14 10° SSE 18:55:42 40° E 18:55:42 40° E
Cosmos 1892 Rocket 4.4 18:51:48 10° SSE 18:54:29 34° SE 18:54:29 34° SE
Okean 1-7 Rocket 4.2 18:54:11 10° SSW 18:58:37 58° WNW 19:02:18 14° N
NOSS 2-1 (D) 3.5 18:56:10 10° SW 19:00:02 72° NW 19:00:41 59° N
NOSS 2-1 (C) 3.5 18:56:50 10° SW 19:00:43 73° NW 19:01:20 60° N
Cosmos 1726 Rocket 3.4 18:56:15 10° N 19:00:43 76° E 19:05:11 10° SSE
Cosmos 1484 Rocket 4.3 19:02:05 10° SSW 19:05:32 35° W 19:08:59 10° NNW
Okean 2 4.2 19:03:39 10° S 19:06:21 39° S 19:06:21 39° S
FengYun 1-2 T 4.5 19:08:41 50° NE 19:08:41 50° NE 19:13:29 10° N
BREEZE-M R/B 3.6 19:05:36 10° WSW 19:14:33 71° NNW 19:15:17 61° NNE
Cosmos 1934 Rocket 4.2 19:11:01 10° NNW 19:17:12 71° W 19:23:26 10° S
NOSS 2-1 (E) 4.0 19:15:35 10° SW 19:19:29 55° NW 19:19:30 55° NW
Cosmos 1606 Rocket 4.1 19:15:28 10° NNW 19:19:53 58° W 19:24:16 10° S
Meteor 2-8 Rocket 4.4 19:16:33 10° S 19:22:39 83° W 19:27:15 19° N
Meteor 1-15 Rocket 4.5 19:19:22 10° NNW 19:25:15 71° W 19:31:01 10° S
COSMO-SKYMED 1 3.9 19:24:15 23° NNW 19:26:23 37° WNW 19:30:23 10° SW
USA 234 3.6 19:28:02 43° NNE 19:29:57 58° NNW 19:36:19 10° WSW
Cosmos 2369 Rocket 3.8 19:30:40 10° S 19:32:38 22° S 19:32:38 22° S
Cosmos 407 Rocket 4.1 19:36:05 10° NNW 19:41:04 52° WSW 19:42:47 36° SSW
Cosmos 2056 Rocket 4.1 19:38:55 10° SW 19:44:09 53° WNW 19:44:38 51° NW
CZ-3A R/B 4.0 19:50:36 10° WNW 19:57:35 36° NNW 19:57:35 36° NNW
FALCON 9 R/B 4.5 20:44:42 10° W 20:53:49 27° SW 20:53:49 27° SW
CZ-3B DEB 4.3 21:16:35 10° WNW 21:21:48 47° NNW 21:21:48 47° NNW
